Temperature
18 16 16 17 18 18 18 18 18 19 19 19 19 18 19 19 19 19 19 20 20 21 21 20 20 20 19 19 18 18 17 17 16 16 15 15 14 14 14 13 13 13 13 13
17 17 18 18 18 18 18 18 18 19 19 19 18 18 18 18 18 19 19 20 20 21 21 20 20 20 19 19 19 18 17 17 16 16 15 15 14 14 14 13 13 13 13 13
18 18 19 19 18 18 19 18 19 19 19 19 19 19 19 19 19 20 20 20 21 21 21 21 20 20 19 19 19 18 18 17 16 16 15 15 14 14 14 13 13 13 13 13
19 19 19 19 19 19 18 19 19 19 18 17 18 18 18 18 18 19 19 20 21 21 21 21 20 20 20 19 19 18 18 17 16 16 15 15 15 14 14 13 13 13 13 12
19 19 19 19 19 19 19 19 19 19 18 17 17 17 18 17 19 19 19 20 21 21 21 21 21 21 20 20 19 18 18 17 16 16 15 15 14 14 14 13 13 13 13 12
19 19 20 20 20 20 19 18 17 16 16 17 18 18 18 17 19 19 19 21 22 22 21 21 21 20 20 20 19 18 18 17 17 16 15 15 15 14 14 13 13 13 13 13
20 20 20 20 20 20 18 17 17 17 16 17 17 18 17 18 19 18 19 21 22 22 22 21 21 21 20 20 19 19 18 17 17 16 16 15 15 14 14 13 13 13 13 13
19 19 20 20 20 20 18 18 17 18 17 16 17 18 18 19 19 20 20 21 22 22 22 22 21 21 21 20 19 19 18 18 17 16 16 15 15 14 14 13 13 13 13 13
19 20 21 21 20 20 19 17 17 15 17 16 17 17 18 19 19 19 19 20 21 21 21 22 21 21 21 20 20 19 18 18 17 17 16 15 15 14 14 14 13 13 13 13
19 20 21 21 21 19 19 16 15 16 17 17 17 17 17 18 18 18 17 18 19 20 21 21 21 21 21 20 20 19 18 18 17 17 16 15 15 14 14 14 13 13 13 13
20 19 20 20 21 21 19 17 15 14 15 16 17 17 17 17 17 16 16 18 19 20 20 20 20 20 20 20 19 19 18 18 17 17 16 15 15 14 14 14 13 13 13 13
17 16 18 19 20 20 20 19 16 17 16 14 15 16 17 16 16 16 17 18 19 19 19 20 20 20 19 19 19 19 18 18 17 17 16 16 15 14 14 14 13 13 13 13
18 17 18 18 18 19 19 18 16 15 13 13 15 17 17 16 16 16 16 17 18 19 19 19 19 19 19 19 19 18 18 18 17 17 16 16 15 15 14 14 14 13 13 13
17 16 17 18 18 19 19 19 17 16 15 15 15 16 16 15 15 15 16 17 17 18 18 18 19 18 18 18 18 18 18 17 17 16 16 16 15 15 15 14 14 13 13 13
16 17 18 18 18 18 18 18 17 16 16 15 16 16 15 15 14 15 15 16 17 17 17 18 18 18 18 18 18 18 18 17 17 16 16 16 16 15 15 14 14 14 13 13
14 17 18 18 18 17 17 17 16 16 15 15 15 15 15 15 15 15 15 15 15 16 16 17 17 17 18 18 18 18 18 17 17 16 16 16 15 15 15 14 14 14 14 13
14 16 16 16 16 18 17 17 16 15 15 15 14 14 14 14 14 14 14 14 14 15 15 16 16 17 17 17 17 17 17 17 17 16 16 15 15 15 15 15 14 14 14 14
14 14 13 14 17 18 16 16 15 14 14 14 14 14 14 14 15 15 15 14 14 14 15 15 15 16 16 17 17 17 17 16 16 16 16 15 15 15 15 15 14 14 14 14
12 13 13 13 15 15 16 15 15 15 14 13 13 13 14 14 14 14 14 14 14 14 14 14 15 15 16 16 16 16 16 16 16 16 16 16 15 15 15 15 15 15 14 14
12 12 12 13 16 15 15 15 15 15 14 13 13 13 13 13 12 12 14 14 14 14 14 14 14 14 15 15 15 15 15 15 15 15 15 15 15 15 15 15 15 15 14 14
13 12 12 12 14 13 14 14 15 14 14 13 13 13 13 12 12 13 13 13 13 13 13 14 14 14 14 14 14 14 14 14 14 14 15 15 15 15 15 15 15 14 14 14
12 12 11 11 13 13 13 13 13 12 13 13 13 13 12 12 12 12 13 13 13 13 13 13 13 13 13 13 13 13 13 13 14 14 14 14 15 15 15 15 15 14 14 14
11 11 10 11 12 12 13 13 13 13 13 13 13 12 12 12 12 12 12 12 12 12 12 12 12 12 12 12 12 12 13 13 13 13 14 14 14 14 14 14 14 14 14 14
10 10 10 10 11 12 12 13 13 13 13 13 12 12 12 11 11 11 11 11 11 11 11 11 11 11 11 11 11 11 12 12 12 12 13 13 13 14 14 14 14 14 14 14
10 10 9 9 10 11 12 12 12 12 12 12 12 12 11 11 11 11 11 11 10 10 10 10 10 11 11 11 11 11 11 11 11 12 12 12 13 13 13 13 14 14 14 14
8 9 9 10 11 10 12 12 12 12 12 12 11 11 11 10 10 10 10 10 10 10 10 10 10 10 10 10 10 10 10 10 10 10 11 11 12 12 12 13 13 13 13 14
Wind_Speed
3 5 3 5 4 4 4 3 2 4 2 2 5 8 10 5 5 7 7 8 9 10 6 6 7 7 7 6 6 6 6 4 3 2 1 1 1 1 1 2 2 3 3 3
5 1 4 4 4 4 3 1 2 3 2 1 4 8 8 5 6 7 9 10 10 7 5 6 7 7 8 8 8 7 6 5 4 3 2 2 1 1 2 2 2 3 3 3
5 4 4 5 3 2 1 3 2 2 4 3 4 8 6 4 3 3 5 7 8 10 10 9 8 8 8 9 9 8 7 6 5 3 2 2 2 2 2 2 2 3 4 4
1 2 4 3 2 4 2 3 3 0 3 4 4 3 7 6 6 3 3 5 7 8 9 8 9 9 10 10 8 7 7 6 5 4 3 3 2 2 3 2 3 4 4 3
1 3 4 3 3 5 3 1 3 2 3 3 4 2 8 6 5 5 5 5 7 8 9 10 10 10 9 8 7 7 6 6 5 5 5 4 3 2 2 2 3 3 3 3
0 1 3 4 1 3 3 5 6 5 5 3 3 1 6 5 5 7 5 5 6 7 7 8 7 7 6 6 6 6 7 6 5 5 5 5 5 3 2 2 3 3 3 3
4 3 1 2 3 3 5 5 5 7 5 3 4 0 7 7 6 6 7 7 5 5 6 7 8 9 8 9 8 8 8 7 6 6 6 6 5 5 4 4 3 3 3 3
3 3 3 2 4 4 3 6 6 3 2 4 5 3 7 7 7 5 4 4 3 3 5 7 8 9 9 9 9 9 9 8 7 6 6 5 5 4 4 4 3 3 3 4
4 2 3 1 2 7 5 3 5 6 2 2 6 7 8 7 9 9 8 6 5 5 5 6 6 8 9 9 10 10 10 8 7 7 6 5 5 4 4 4 3 3 3 3
5 2 3 1 5 5 4 8 5 5 3 2 6 5 5 9 9 9 8 7 7 6 5 4 4 5 7 7 7 7 8 9 7 7 6 5 5 5 4 3 4 4 4 3
3 4 4 3 2 1 3 5 6 5 5 5 0 5 3 4 6 6 7 7 6 6 5 4 4 3 3 4 5 6 7 7 7 7 6 6 5 5 4 4 4 4 3 3
3 5 1 3 4 1 3 5 6 4 2 4 4 4 4 4 5 5 7 8 7 5 5 4 4 2 1 3 4 6 6 7 7 7 6 6 5 4 4 4 4 3 3 3
4 5 3 6 6 5 4 3 4 6 5 5 4 4 5 7 8 7 7 8 8 7 7 6 5 4 3 3 3 5 6 7 7 6 7 6 6 6 6 6 5 4 3 3
4 4 5 6 5 2 2 1 3 5 4 4 5 4 8 10 10 11 10 9 8 7 7 7 6 5 4 3 3 4 6 6 7 7 7 8 8 8 7 6 5 4 4 3
5 3 2 2 1 1 0 1 2 3 5 6 3 1 5 7 7 8 8 9 11 11 11 9 7 6 5 5 4 4 4 5 6 7 9 10 8 7 6 6 5 4 4 4
5 3 2 2 3 2 2 4 2 2 2 2 2 1 5 5 5 8 9 11 11 11 11 11 9 8 7 6 6 5 4 4 5 8 9 8 7 7 7 7 6 5 5 4
3 3 3 2 4 3 2 2 2 3 2 3 2 2 5 5 7 7 8 9 10 11 11 11 10 8 7 7 5 5 5 3 3 6 7 7 7 8 8 7 6 7 6 5
3 4 3 1 2 1 3 2 4 6 4 3 1 1 3 3 3 3 6 8 10 11 11 11 11 10 8 6 6 5 4 2 3 5 6 6 7 8 8 7 8 8 6 6
3 5 4 3 1 2 2 0 1 3 1 3 3 4 6 6 3 4 7 7 7 8 8 8 8 8 8 8 7 6 4 3 3 5 6 7 7 8 8 9 10 8 7 7
5 5 5 4 3 4 4 3 3 4 1 3 2 4 6 5 4 5 9 9 8 8 8 9 9 8 9 9 7 6 6 5 6 7 7 7 7 8 9 10 10 7 7 8
3 4 3 3 3 5 3 5 2 3 4 2 1 2 3 1 3 6 9 9 8 8 8 9 8 8 9 8 6 6 6 7 9 8 7 6 7 8 9 8 7 7 8 7
3 3 3 4 3 6 2 2 3 3 1 0 1 2 2 3 5 6 8 9 9 9 8 8 8 9 9 7 6 7 8 9 8 7 7 7 7 7 7 7 7 7 8 8
3 5 5 6 5 2 0 2 1 2 1 1 1 3 3 4 5 7 7 8 9 9 8 8 8 9 9 7 6 8 10 10 9 8 8 8 7 7 6 6 7 6 7 8
3 2 3 1 3 2 1 1 1 1 1 1 1 2 2 4 6 7 8 8 9 8 8 8 8 9 10 9 8 9 10 9 8 9 9 8 7 7 6 6 6 7 8 8
4 2 2 2 4 2 3 2 1 0 1 1 2 2 3 3 5 7 7 8 8 8 8 7 8 9 11 10 10 9 9 9 9 9 9 8 7 7 6 7 7 9 9 10
5 6 6 6 6 5 5 4 3 2 2 2 2 3 4 3 5 6 7 8 8 9 9 9 9 10 11 11 11 10 8 8 9 9 9 7 7 6 6 6 6 9 9 12
Wind_Direction
104 93 157 195 184 155 140 141 249 263 268 227 256 273 283 267 229 225 217 213 219 226 222 191 181 166 158 162 167 175 173 170 149 128 127 130 275 302 319 309 316 323 325 329
75 138 203 155 138 118 122 148 271 300 330 240 295 288 287 261 231 220 214 214 214 215 202 191 179 174 176 178 181 183 186 182 181 175 171 184 202 256 270 294 313 321 325 324
145 192 160 137 133 117 181 203 236 289 349 23 345 329 325 324 302 247 215 211 210 207 205 198 190 190 185 189 191 192 194 193 189 170 122 80 46 13 352 329 314 317 321 318
131 154 142 140 172 152 252 236 200 129 42 341 25 328 309 320 326 308 242 214 215 215 205 200 196 196 199 200 192 191 192 191 189 173 167 169 178 217 249 266 284 306 314 316
150 155 151 177 213 173 209 61 102 86 109 21 21 55 300 337 335 313 283 248 230 218 207 206 204 205 203 193 187 190 188 194 190 183 183 182 196 222 262 288 297 309 316 315
73 176 173 193 187 146 127 71 61 53 68 38 341 48 299 301 286 299 296 267 243 223 214 213 209 200 197 187 185 185 189 201 194 190 192 193 201 215 249 284 293 304 311 311
19 357 320 152 91 55 75 78 36 20 22 294 311 233 262 277 279 268 279 279 260 227 212 210 204 200 197 194 193 189 192 205 198 195 203 206 209 208 222 244 255 276 294 299
76 332 284 188 165 150 125 126 139 148 225 296 346 309 273 291 309 315 317 313 304 255 231 224 216 209 205 202 197 192 197 206 198 199 210 211 211 210 225 233 234 245 255 268
145 268 302 210 157 129 123 113 149 126 121 20 326 318 321 349 1 2 2 358 331 301 269 248 233 217 210 205 201 197 199 204 202 203 205 209 212 213 225 236 234 244 256 267
146 120 340 339 78 43 110 139 99 97 112 18 329 331 312 330 337 348 352 344 330 327 314 289 260 236 221 212 208 199 199 203 204 200 203 206 210 216 221 227 241 251 262 269
107 113 353 36 81 165 103 86 96 98 131 137 310 298 263 280 308 324 325 322 320 323 322 317 302 276 243 219 205 204 206 206 204 203 204 206 211 214 216 224 238 244 254 263
91 107 43 302 298 277 137 141 140 132 168 145 152 264 298 311 319 333 334 336 339 335 333 337 339 345 312 243 224 215 212 210 211 204 202 209 210 207 213 227 238 236 246 257
112 98 63 356 348 6 58 89 110 117 114 141 153 254 338 3 3 359 352 347 353 0 2 1 2 355 327 290 254 235 223 219 214 201 201 209 211 209 217 226 230 230 235 250
104 97 148 184 219 262 341 64 132 125 138 178 209 254 336 351 356 353 353 353 359 6 6 4 353 338 321 304 278 256 242 224 210 202 205 211 215 214 218 222 221 222 222 228
76 102 156 224 255 127 321 345 118 154 173 172 210 188 326 334 338 342 351 3 12 8 1 352 341 332 327 325 310 287 268 241 215 205 212 221 219 214 214 218 219 218 218 225
46 103 69 8 40 71 45 6 55 100 115 134 101 13 323 332 360 8 8 12 9 358 351 346 339 334 329 320 313 301 287 263 222 216 223 226 217 214 215 217 214 213 220 226
36 101 96 284 313 30 8 356 99 99 53 120 136 263 319 349 10 11 6 9 360 348 344 343 336 326 314 308 302 295 285 280 236 231 233 226 217 219 221 217 210 214 217 215
131 107 118 105 42 228 231 15 118 111 75 55 84 322 324 309 302 24 25 9 354 348 344 340 337 331 323 315 313 305 301 293 259 245 244 234 222 225 223 213 216 219 212 209
147 133 115 115 141 281 292 120 149 153 97 15 14 346 338 325 351 2 10 358 342 334 331 327 326 327 330 331 327 325 316 304 291 268 257 244 227 228 223 219 221 218 208 212
65 86 108 120 156 230 243 295 303 128 187 324 357 345 345 17 12 318 335 336 332 333 335 336 336 340 343 338 336 331 321 310 293 283 270 261 237 229 228 226 223 215 209 214
53 58 107 144 197 254 274 308 64 143 244 278 311 331 352 350 249 285 318 328 330 331 332 337 341 341 334 331 335 327 320 304 292 292 283 267 250 240 236 229 222 211 208 208
171 150 167 146 182 245 309 70 132 206 219 211 328 329 325 304 307 318 325 328 332 335 336 337 339 335 332 332 331 322 311 304 306 299 287 273 259 249 246 229 223 212 203 205
195 189 184 185 202 224 8 145 165 151 154 251 301 315 326 324 322 325 326 327 327 327 330 330 329 328 330 329 324 312 308 314 315 309 295 282 272 255 245 230 222 212 205 208
281 148 140 235 244 226 212 160 82 113 161 240 296 313 328 319 318 324 325 325 325 322 321 323 326 327 324 322 313 306 309 313 312 307 302 292 280 269 252 240 228 217 212 213
241 182 168 245 260 271 261 240 227 135 70 11 336 322 309 313 315 315 317 317 316 315 312 314 315 313 312 314 311 311 315 317 313 308 303 298 284 271 257 244 236 230 226 217
216 191 183 219 217 196 233 233 205 196 242 259 286 310 312 307 307 313 314 311 311 312 311 310 309 307 308 311 310 308 309 312 312 312 308 300 291 281 265 254 263 255 247 239
Height
1491 1496 1501 1499 1498 1499 1502 1506 1508 1503 1498 1499 1499 1498 1491 1489 1490 1491 1492 1493 1495 1497 1499 1502 1504 1506 1508 1509 1511 1512 1513 1513 1513 1512 1511 1510 1509 1509 1508 1507 1506 1504 1503 1502
1496 1499 1495 1495 1496 1498 1501 1505 1506 1502 1497 1499 1500 1498 1490 1488 1487 1487 1489 1490 1492 1495 1497 1499 1502 1504 1505 1507 1509 1511 1511 1512 1511 1511 1510 1509 1509 1508 1507 1506 1505 1503 1502 1501
1496 1495 1492 1495 1498 1501 1503 1505 1504 1504 1500 1499 1501 1501 1494 1488 1487 1486 1487 1489 1491 1492 1494 1497 1499 1501 1503 1505 1507 1509 1510 1510 1510 1510 1509 1509 1508 1507 1506 1505 1504 1503 1501 1500
1493 1492 1493 1496 1499 1500 1506 1499 1500 1502 1508 1514 1509 1519 1501 1494 1489 1486 1486 1487 1488 1490 1492 1495 1497 1499 1501 1503 1506 1507 1508 1509 1509 1509 1508 1507 1507 1506 1505 1504 1503 1502 1500 1499
1494 1492 1494 1497 1497 1497 1500 1497 1500 1503 1508 1515 1514 1519 1510 1498 1493 1489 1486 1486 1487 1489 1491 1493 1495 1497 1499 1502 1504 1505 1507 1507 1507 1507 1507 1506 1505 1505 1504 1503 1502 1501 1499 1498
1491 1490 1491 1493 1492 1494 1496 1500 1505 1511 1517 1525 1518 1520 1517 1504 1496 1491 1486 1485 1486 1488 1489 1491 1494 1496 1498 1500 1502 1503 1504 1505 1505 1505 1505 1505 1504 1503 1503 1502 1501 1500 1498 1497
1496 1493 1490 1491 1494 1496 1499 1511 1526 1529 1534 1530 1519 1519 1516 1497 1492 1490 1487 1485 1486 1487 1488 1490 1492 1493 1495 1497 1499 1501 1502 1503 1503 1504 1503 1503 1503 1502 1501 1501 1500 1499 1497 1496
1504 1506 1493 1490 1493 1498 1502 1509 1527 1535 1537 1533 1522 1521 1508 1495 1491 1489 1487 1487 1486 1487 1488 1489 1490 1492 1493 1495 1497 1498 1499 1500 1501 1502 1502 1502 1501 1501 1500 1499 1499 1498 1497 1496
1504 1504 1491 1489 1489 1494 1503 1511 1512 1526 1529 1535 1528 1518 1503 1493 1492 1490 1489 1488 1487 1487 1487 1487 1488 1490 1491 1492 1494 1495 1497 1498 1499 1499 1500 1500 1499 1499 1499 1498 1497 1497 1496 1495
1494 1501 1494 1490 1491 1494 1498 1507 1518 1526 1536 1540 1531 1525 1521 1505 1500 1495 1493 1491 1489 1488 1487 1487 1487 1488 1489 1490 1492 1493 1494 1495 1496 1497 1497 1497 1498 1497 1497 1497 1496 1495 1495 1494
1491 1501 1500 1495 1497 1499 1502 1509 1518 1528 1529 1540 1539 1533 1511 1507 1502 1499 1495 1492 1490 1488 1487 1486 1486 1487 1487 1488 1489 1490 1492 1493 1494 1494 1495 1495 1495 1496 1495 1495 1495 1494 1494 1493
1495 1504 1510 1502 1495 1494 1496 1502 1512 1523 1529 1534 1538 1534 1506 1505 1502 1499 1496 1493 1491 1489 1488 1487 1486 1486 1486 1486 1487 1488 1489 1490 1491 1492 1492 1493 1493 1493 1493 1493 1493 1493 1492 1492
1494 1504 1517 1515 1510 1501 1500 1503 1508 1517 1528 1537 1537 1527 1505 1504 1501 1499 1497 1494 1491 1490 1488 1487 1486 1485 1485 1485 1485 1486 1486 1487 1488 1489 1489 1490 1490 1491 1491 1491 1491 1491 1490 1490
1493 1505 1513 1519 1514 1505 1504 1504 1508 1513 1526 1530 1527 1520 1511 1506 1504 1500 1497 1495 1493 1491 1489 1488 1486 1485 1484 1484 1484 1484 1484 1484 1485 1485 1486 1486 1487 1488 1488 1488 1489 1489 1488 1488
1494 1505 1504 1505 1503 1503 1505 1506 1507 1511 1515 1521 1518 1518 1514 1510 1507 1504 1500 1497 1494 1491 1490 1489 1487 1485 1484 1483 1482 1482 1481 1481 1481 1481 1482 1482 1484 1485 1485 1486 1486 1486 1486 1486
1499 1505 1505 1507 1505 1505 1508 1508 1508 1510 1512 1514 1515 1516 1511 1509 1507 1504 1501 1498 1495 1493 1491 1490 1488 1486 1484 1482 1481 1480 1479 1479 1478 1478 1478 1479 1480 1481 1482 1482 1483 1483 1483 1483
1505 1506 1512 1515 1510 1506 1515 1510 1510 1513 1513 1513 1518 1517 1511 1509 1506 1505 1502 1499 1498 1495 1492 1490 1487 1485 1483 1482 1480 1478 1477 1476 1475 1475 1475 1475 1476 1477 1477 1478 1479 1479 1480 1480
1506 1510 1517 1518 1513 1519 1516 1508 1508 1512 1514 1513 1512 1512 1510 1508 1506 1504 1502 1501 1498 1495 1492 1489 1487 1484 1482 1480 1478 1477 1475 1473 1472 1472 1471 1471 1471 1472 1473 1473 1474 1475 1476 1476
1503 1508 1518 1523 1522 1519 1513 1508 1509 1510 1514 1513 1512 1510 1508 1506 1503 1503 1502 1501 1499 1496 1493 1490 1487 1483 1480 1478 1476 1474 1472 1470 1469 1468 1467 1467 1467 1467 1467 1468 1469 1470 1471 1472
1505 1508 1517 1522 1519 1522 1514 1506 1504 1508 1515 1511 1510 1509 1508 1505 1508 1505 1501 1499 1496 1494 1492 1488 1485 1481 1478 1475 1473 1471 1468 1466 1465 1464 1463 1463 1462 1462 1462 1462 1463 1464 1465 1466
1512 1515 1519 1522 1521 1517 1509 1505 1504 1516 1515 1510 1509 1509 1508 1507 1508 1505 1501 1498 1495 1492 1489 1486 1483 1479 1476 1473 1470 1467 1465 1463 1461 1460 1458 1457 1457 1457 1456 1456 1457 1458 1459 1461
1513 1516 1520 1523 1523 1519 1507 1505 1509 1511 1509 1508 1508 1507 1507 1506 1504 1501 1499 1496 1493 1489 1486 1483 1480 1477 1474 1471 1468 1464 1462 1459 1457 1455 1453 1452 1451 1451 1450 1450 1451 1452 1453 1454
1511 1511 1512 1513 1513 1508 1505 1506 1507 1507 1507 1507 1506 1506 1505 1503 1501 1499 1496 1493 1490 1487 1484 1481 1477 1474 1471 1468 1465 1461 1458 1455 1452 1450 1447 1446 1445 1444 1444 1444 1444 1445 1446 1447
1507 1506 1508 1509 1506 1505 1505 1505 1505 1505 1505 1505 1505 1504 1503 1501 1499 1496 1493 1490 1488 1485 1481 1478 1475 1471 1468 1465 1462 1458 1455 1451 1448 1445 1442 1440 1439 1437 1437 1437 1437 1438 1438 1439
1505 1505 1507 1507 1504 1503 1503 1503 1503 1503 1503 1503 1502 1502 1500 1498 1496 1494 1491 1488 1485 1482 1478 1475 1472 1468 1464 1461 1457 1454 1451 1447 1443 1440 1437 1434 1433 1431 1429 1429 1430 1430 1431 1432
1500 1500 1503 1503 1499 1500 1500 1500 1501 1501 1501 1501 1500 1498 1497 1496 1493 1491 1488 1485 1481 1478 1475 1471 1468 1464 1461 1457 1453 1450 1446 1443 1439 1435 1431 1429 1426 1425 1423 1422 1421 1422 1423 1424